User: anonymous   Login
Location: Santa Barbara
(34.4500°N, 119.7700°W)
Time: 17:16:08
(UTC-07:00)
Language:

Cosmos 1892 Rocket - Orbit

View from above orbital plane
View from above orbital plane
View from above satellite
View from above satellite

Ground track
Ground track

The orbit data is extracted from the following two-line orbital elements,

1 18422U 87088B   15213.76938897  .00000220  00000-0  24209-4 0  9992
2 18422 082.5119 099.0733 0019823 172.0667 251.2064 14.82749053500242
Epoch (UTC): 01 August 2015 18:27:55
Eccentricity: 0.0019823
inclination: 82.5119°
perigee height: 607 km
apogee height: 634 km
right ascension of ascending node: 99.0733°
argument of perigee: 172.0667°
revolutions per day: 14.82749053
mean anomaly at epoch: 251.2064°
orbit number at epoch: 50024

The dashed part of the orbit path shows where the satellite is in the earth's shadow,  

DLR